Tracking 33404 objects as of 6-Mar-2026
HD Live streaming from Space Station
objects crossing your sky now

STARLINK-35465

Track STARLINK-35465 now!
10-day predictions
STARLINK-35465 is classified as:


NORAD ID: 65871
Int'l Code: 2025-223T
Perigee: 481.6 km
Apogee: 483.3 km
Inclination: 53.2 °
Period: 94.1 minutes
Semi major axis: 6853 km
RCS: Unknown
Launch date: October 3, 2025
Source: United States (US)
Launch site: AIR FORCE WESTERN TEST RANGE (AFWTR)
Your satellite tracking list
Your tracking list is empty




NASA's NSSDC Master Catalog

Two Line Element Set (TLE):
1 65871U 25223T   26065.14802297  .00024807  00000-0  84753-3 0  9994
2 65871  53.1594 310.6075 0001277  74.2633 285.8509 15.30175006 23662
Source of the keplerian elements: AFSPC